Find Skorpion

NORAD ID: 67293 Int'l Des: 2025-313 Owner: MGU Country: RU operational
LEOCIRCULARRETROGRADESSO

当前视图

正在加载3D地球...

关于 Skorpion

正在加载描述...

即将过境

Passes for default location (London). Set your location on the main map for personalized predictions.

高度历史

Loading altitude history...

两行轨道根数

1 67293U 25313AX 26150.14289911 .00005730 00000-0 24872-3 0 9991
2 67293 97.3947 225.1871 0012232 57.2576 302.9838 15.22653861 23216
Epoch: May 30, 2026 • Age: 10 hours

当前状态

高度 503.6 km
速度 7.61 km/s
星下点 9.77°N, 45.75°W
发射日期 Dec 28, 2025
运行时间 0.4 years
类型 other

技术详情

分类 Payload
质量 21.00 kg
干质量 21.00 kg
总质量 21.00 kg
长度 0.40 m
直径 0.40 m
跨度 0.40 m
形状 Box
制造商 DOSAAN
平台类型 Cubesat 16U
阶段状态 In Orbit
所有者/国家 MGU/RU

Most Searched